CSG-1

Last updated on Tue Jul 08 2025 00:02:30 GMT+0000 (Coordinated Universal Time)

1 44873U 19092A 25188.54518004 .00000365 00000+0 52458-4 0 9999 2 44873 97.8879 12.1425 0001512 87.2447 272.8939 14.82156673300424
UTC large
Height (km)
Speed (km/s)
/
Latitude / Longitude
Inclination (degrees)
Orbital Period (minutes)
Azimuth
Elevation
Range (km)
Doppler Factor

Next 0 passes for location: London (51.5072 / 0.1276)

Sorry there are no passes over London.